Weather History for Lihue, HI

Change the Weather History Date:

Tuesday, March 26, 2013

  Actual Average Record
Temperature  
Mean Temperature 73 °F 73 °F  
Max Temperature 77 °F 79 °F 86 °F (1981)
Min Temperature 68 °F 68 °F 56 °F (1955)
Degree Days  
Heating Degree Days 0 0  
Month to date heating degree days 0 0  
Since 1 July heating degree days 0 0  
Cooling Degree Days 8 8  
Month to date cooling degree days 125 196  
Year to date cooling degree days 512 591  
Growing Degree Days 22 (Base 50)    
Moisture  
Dew Point 67 °F    
Average Humidity 87    
Maximum Humidity 100    
Minimum Humidity 74    
Precipitation  
Precipitation 0.44 in 0.15 in 4.55 in (2006)
Month to date precipitation 2.22 3.91  
Year to date precipitation 9.10 10.82  
Snow  
Snow 0.00 in - - ()
Month to date snowfall 0.0  
Since 1 July snowfall 0.0  
Snow Depth 0.00 in    
Sea Level Pressure  
Sea Level Pressure 30.03 in    
Wind  
Wind Speed 12 mph (North)    
Max Wind Speed 22 mph    
Max Gust Speed 28 mph    
Visibility 8 miles    
Events Rain    
T = Trace of Precipitation, MM = Missing Value Source: NWS Daily Summary

Daily Weather History Graph

Daily Weather History Graph

Search for Another Location

Airport:

Trip Planner

Search our weather history database for the weather conditions in past years. The results will help you decide how hot, cold, wet, or windy it might be!

Date:

Astronomy

Mar. 26, 2013 Rise Set
Actual Time 6:35 AM HST 6:50 PM HST
Civil Twilight 6:13 AM HST 7:12 PM HST
Nautical Twilight 5:46 AM HST 7:39 PM HST
Astronomical Twilight 5:20 AM HST 8:05 PM HST
Moon 6:36 PM HST (3/26) 5:57 AM HST (3/26)
Length of Visible Light 12h 59m
Length of Day
12h 15m
Full, 100% of the Moon is Illuminated
Mar 26
Full
Mar 26
Full
Apr 2
Last Quarter
Apr 9
New
Apr 18
First Quarter

Hourly Weather History & Observations

Time (HST) Temp. Dew Point Humidity Pressure Visibility Wind Dir Wind Speed Gust Speed Precip Events Conditions
12:53 AM 69.1 °F - N/A% 30.02 in 10.0 mi North 9.2 mph - N/A   Mostly Cloudy
1:53 AM 70.0 °F 66.9 °F 90% 30.00 in 10.0 mi NNE 12.7 mph - N/A   Mostly Cloudy
2:08 AM 71.6 °F - N/A% 30.01 in 10.0 mi NNE 11.5 mph - N/A   Mostly Cloudy
2:19 AM 71.6 °F - N/A% 30.01 in 10.0 mi NNE 11.5 mph - N/A   Mostly Cloudy
2:28 AM 71.6 °F 66.2 °F 83% 30.00 in 10.0 mi NNE 10.4 mph - N/A   Mostly Cloudy
2:53 AM 71.1 °F 66.9 °F 87% 29.99 in 10.0 mi North 8.1 mph - N/A   Mostly Cloudy
3:05 AM 71.6 °F - N/A% 30.00 in 10.0 mi NNE 9.2 mph - N/A   Overcast
3:53 AM 70.0 °F - N/A% 29.98 in 10.0 mi NNW 8.1 mph - 0.00 in   Overcast
4:01 AM 69.8 °F 68.0 °F 94% 29.99 in 6.0 mi NNW 5.8 mph - 0.01 in Rain Heavy Rain
4:14 AM 69.8 °F 68.0 °F 94% 29.99 in 2.5 mi North 6.9 mph - 0.16 in Rain Heavy Rain
4:22 AM 69.8 °F 68.0 °F 94% 29.99 in 5.0 mi NNE 11.5 mph - 0.17 in Rain Rain
4:29 AM 69.8 °F 68.0 °F 94% 29.99 in 6.0 mi North 6.9 mph - 0.17 in Rain Light Rain
4:38 AM 69.8 °F 68.0 °F 94% 29.99 in 5.0 mi North 5.8 mph - 0.18 in Rain Rain
4:45 AM 69.8 °F 68.0 °F 94% 29.99 in 4.0 mi NNW 8.1 mph - 0.21 in Rain Light Rain
4:53 AM 70.0 °F 67.1 °F 91% 29.99 in 5.0 mi NNE 11.5 mph - 0.23 in Rain Light Rain
5:04 AM 69.8 °F - N/A% 30.00 in 4.0 mi NNE 11.5 mph - 0.04 in Rain Rain
5:28 AM 68.0 °F - N/A% 30.01 in 3.0 mi NE 10.4 mph - 0.16 in Rain Heavy Rain
5:36 AM 68.0 °F - N/A% 30.01 in 4.0 mi NE 8.1 mph - 0.19 in Rain Rain
5:53 AM 68.0 °F - N/A% 30.01 in 8.0 mi NE 6.9 mph - 0.21 in Rain Light Rain
6:23 AM 68.0 °F 66.2 °F 94% 30.03 in 8.0 mi North 8.1 mph - 0.00 in Rain Light Rain
6:30 AM 68.0 °F 66.2 °F 94% 30.03 in 10.0 mi NNW 6.9 mph - 0.00 in Rain Light Rain
6:41 AM 68.0 °F 66.2 °F 94% 30.03 in 9.0 mi NNW 5.8 mph - 0.00 in Rain Light Rain
6:49 AM 68.0 °F 66.2 °F 94% 30.03 in 10.0 mi NNW 6.9 mph - 0.00 in   Overcast
6:53 AM 68.0 °F 66.2 °F 94% 30.03 in 10.0 mi NNW 8.1 mph - 0.00 in   Overcast
7:01 AM 68.0 °F 68.0 °F 100% 30.04 in 10.0 mi North 8.1 mph - N/A   Overcast
7:53 AM 68.0 °F 68.0 °F 100% 30.06 in 10.0 mi NNW 8.1 mph - 0.00 in   Overcast
8:00 AM 69.8 °F 68.0 °F 94% 30.06 in 10.0 mi North 9.2 mph - N/A   Overcast
8:53 AM 69.1 °F 68.0 °F 96% 30.07 in 10.0 mi North 8.1 mph - N/A   Overcast
9:09 AM 71.6 °F 68.0 °F 88% 30.09 in 10.0 mi North 10.4 mph - N/A   Overcast
9:21 AM 71.6 °F 68.0 °F 88% 30.09 in 10.0 mi NNE 11.5 mph - N/A   Mostly Cloudy
9:53 AM 71.1 °F 68.0 °F 90% 30.09 in 10.0 mi NNE 13.8 mph - N/A   Mostly Cloudy
10:53 AM 73.9 °F 68.0 °F 82% 30.09 in 10.0 mi NNE 15.0 mph - N/A   Mostly Cloudy
11:53 AM 75.9 °F 69.8 °F 81% 30.07 in 10.0 mi NNE 15.0 mph - N/A   Partly Cloudy
12:53 PM 75.9 °F 68.0 °F 76% 30.05 in 10.0 mi NNE 17.3 mph - N/A   Overcast
1:53 PM 77.0 °F 68.0 °F 74% 30.03 in 10.0 mi NNE 21.9 mph - N/A   Scattered Clouds
2:53 PM 75.0 °F 68.0 °F 79% 30.01 in 10.0 mi NNE 17.3 mph - N/A   Overcast
3:26 PM 73.4 °F 68.0 °F 83% 30.02 in 10.0 mi NNE 15.0 mph - N/A   Overcast
3:43 PM 73.4 °F 68.0 °F 83% 30.01 in 10.0 mi North 13.8 mph - 0.00 in Rain Light Rain
3:50 PM 73.4 °F 68.0 °F 83% 30.01 in 10.0 mi North 15.0 mph - 0.00 in   Overcast
3:53 PM 73.9 °F 68.0 °F 82% 30.01 in 9.0 mi North 12.7 mph - 0.00 in   Overcast
4:09 PM 73.4 °F 68.0 °F 83% 30.01 in 2.5 mi North 13.8 mph - 0.00 in Rain Light Rain
4:17 PM 73.4 °F 68.0 °F 83% 30.02 in 4.0 mi North 13.8 mph - 0.00 in Rain Rain
4:26 PM 73.4 °F 68.0 °F 83% 30.02 in 4.0 mi North 11.5 mph - 0.00 in Rain Rain
4:37 PM 73.4 °F 68.0 °F 83% 30.02 in 2.5 mi North 11.5 mph - 0.05 in Rain Heavy Rain
4:51 PM 73.4 °F 68.0 °F 83% 30.02 in 3.0 mi North 12.7 mph 21.9 mph 0.10 in Rain Rain
4:53 PM 73.0 °F 68.0 °F 84% 30.01 in 3.0 mi North 12.7 mph 21.9 mph 0.10 in Rain Rain
4:59 PM 69.8 °F 68.0 °F 94% 30.02 in 3.0 mi NNE 12.7 mph - 0.02 in Rain Rain
5:07 PM 69.8 °F 68.0 °F 94% 30.02 in 3.0 mi NNE 16.1 mph - 0.03 in Rain Rain
5:16 PM 69.8 °F 68.0 °F 94% 30.02 in 6.0 mi NNE 13.8 mph - 0.04 in Rain Light Rain
5:53 PM 70.0 °F 68.0 °F 93% 30.02 in 9.0 mi North 19.6 mph 24.2 mph 0.04 in Rain Light Rain
6:04 PM 69.8 °F 68.0 °F 94% 30.03 in 10.0 mi NNE 15.0 mph - 0.00 in Rain Light Rain
6:18 PM 69.8 °F 68.0 °F 94% 30.03 in 10.0 mi North 15.0 mph - 0.00 in   Overcast
6:25 PM 69.8 °F 68.0 °F 94% 30.03 in 10.0 mi North 10.4 mph - 0.00 in Rain Light Rain
6:33 PM 69.8 °F 68.0 °F 94% 30.03 in 10.0 mi North 10.4 mph - 0.00 in Rain Light Rain
6:53 PM 70.0 °F 68.0 °F 93% 30.04 in 10.0 mi NNW 10.4 mph - 0.00 in   Overcast
7:13 PM 69.8 °F 68.0 °F 94% 30.04 in 10.0 mi North 10.4 mph - N/A   Overcast
7:20 PM 69.8 °F 68.0 °F 94% 30.05 in 10.0 mi North 11.5 mph - N/A   Overcast
7:35 PM 69.8 °F 68.0 °F 94% 30.05 in 10.0 mi North 12.7 mph - N/A   Overcast
7:53 PM 70.0 °F 68.0 °F 93% 30.05 in 10.0 mi North 11.5 mph - 0.00 in Rain Light Rain
8:09 PM 69.8 °F 68.0 °F 94% 30.06 in 10.0 mi North 11.5 mph - 0.00 in   Overcast
8:53 PM 69.1 °F 68.0 °F 96% 30.06 in 10.0 mi NNW 9.2 mph - 0.00 in   Overcast
9:53 PM 70.0 °F 68.0 °F 93% 30.06 in 9.0 mi NNW 10.4 mph - 0.07 in Rain Light Rain
10:17 PM 69.8 °F 68.0 °F 94% 30.08 in 3.0 mi NNE 9.2 mph - 0.05 in Rain Heavy Rain
10:19 PM 69.8 °F 68.0 °F 94% 30.08 in 2.5 mi NNE 17.3 mph 23.0 mph 0.08 in Rain Heavy Rain
10:31 PM 69.8 °F 68.0 °F 94% 30.07 in 3.0 mi North 11.5 mph 24.2 mph 0.17 in Rain Heavy Rain
10:37 PM 69.8 °F 68.0 °F 94% 30.07 in 5.0 mi North 16.1 mph 21.9 mph 0.18 in Rain Rain
10:45 PM 69.8 °F 68.0 °F 94% 30.07 in 7.0 mi North 16.1 mph - 0.19 in Rain Light Rain
10:53 PM 70.0 °F 68.0 °F 93% 30.07 in 6.0 mi North 10.4 mph - 0.19 in Rain Rain
10:58 PM 69.8 °F - N/A% 30.07 in 7.0 mi North 15.0 mph - 0.00 in Rain Light Rain
11:09 PM 68.0 °F - N/A% 30.07 in 10.0 mi North 11.5 mph - 0.01 in Rain Light Rain
11:34 PM 66.2 °F - N/A% 30.07 in 2.5 mi NNW 18.4 mph 32.2 mph 0.09 in Rain Heavy Rain
11:50 PM 69.8 °F - N/A% 30.07 in 3.0 mi NNE 24.2 mph 31.1 mph 0.29 in Rain Heavy Rain
11:53 PM 68.0 °F - N/A% 30.06 in 2.5 mi NNE 21.9 mph 29.9 mph 0.31 in Rain Heavy Rain